DEECF EDFM-EDXW

Flight info

Callsign DEECF
Flight time N/A
Altitude 8500
Route CHA DCT GED DCT WRB DCT BND DCT NOR DCT EDXB
Aircraft C182/L-SFG/C

Departure

Time N/A
Airport Mannheim-City Airport (EDFM)

Arrival

Time 2026-04-21 17:20
Airport Westerland Sylt Airport (EDXW)
Time Latitude Longitude Altitude Speed Heading
2026-04-21 15:08 49.83574 8.94064 3112 ft 139 kts 45°
2026-04-21 15:08 49.84196 8.95191 3112 ft 139 kts 45°
2026-04-21 15:08 49.84921 8.96124 3112 ft 136 kts 21°
2026-04-21 15:09 49.85760 8.96808 3112 ft 137 kts 29°
2026-04-21 15:09 49.86567 8.97596 3111 ft 137 kts 32°
2026-04-21 15:09 49.87344 8.98434 3112 ft 137 kts 33°
2026-04-21 15:09 49.88129 8.99312 3112 ft 137 kts 33°
2026-04-21 15:10 49.88889 9.00179 3112 ft 137 kts 34°
2026-04-21 15:10 49.89659 9.01067 3112 ft 137 kts 34°
2026-04-21 15:10 49.90427 9.01960 3112 ft 137 kts 34°
2026-04-21 15:10 49.91191 9.02854 3111 ft 137 kts 34°
2026-04-21 15:11 49.91977 9.03670 3109 ft 136 kts 20°
2026-04-21 15:11 49.92878 9.04124 3112 ft 136 kts 17°
2026-04-21 15:11 49.93787 9.04549 3111 ft 136 kts 15°
2026-04-21 15:11 49.94693 9.04958 3111 ft 136 kts 15°
2026-04-21 15:12 49.95597 9.05357 3111 ft 136 kts 15°
2026-04-21 15:12 49.96517 9.05756 3111 ft 136 kts 15°
2026-04-21 15:12 49.97426 9.06155 3111 ft 136 kts 15°
2026-04-21 15:12 49.98335 9.06555 3111 ft 136 kts 15°
2026-04-21 15:13 49.99245 9.06952 3111 ft 136 kts 15°
2026-04-21 15:13 50.00147 9.07340 3111 ft 136 kts 15°
2026-04-21 15:13 50.01056 9.07730 3111 ft 136 kts 14°
2026-04-21 15:13 50.01966 9.08117 3111 ft 136 kts 14°
2026-04-21 15:14 50.02883 9.08507 3111 ft 136 kts 14°
2026-04-21 15:14 50.03785 9.08890 3111 ft 135 kts 14°
2026-04-21 15:14 50.04697 9.09277 3111 ft 135 kts 14°
2026-04-21 15:14 50.05607 9.09662 3111 ft 135 kts 14°
2026-04-21 15:15 50.06517 9.10048 3111 ft 135 kts 14°
2026-04-21 15:15 50.07424 9.10432 3111 ft 135 kts 14°
2026-04-21 15:15 50.08334 9.10817 3111 ft 135 kts 14°
2026-04-21 15:15 50.09238 9.11200 3111 ft 135 kts 14°
2026-04-21 15:16 50.10151 9.11587 3112 ft 135 kts 14°
2026-04-21 15:16 50.11059 9.11972 3115 ft 136 kts 14°
2026-04-21 15:16 50.11972 9.12359 3115 ft 136 kts 14°
2026-04-21 15:16 50.12883 9.12746 3115 ft 136 kts 14°
2026-04-21 15:17 50.13808 9.13138 3115 ft 136 kts 14°
2026-04-21 15:17 50.14722 9.13526 3115 ft 137 kts 14°
2026-04-21 15:17 50.15633 9.13920 3115 ft 137 kts 15°
2026-04-21 15:17 50.16553 9.14317 3115 ft 137 kts 14°
2026-04-21 15:18 50.17474 9.14714 3115 ft 137 kts 14°
2026-04-21 15:18 50.18392 9.15107 3115 ft 137 kts 14°
2026-04-21 15:18 50.19302 9.15497 3115 ft 137 kts 14°
2026-04-21 15:18 50.20230 9.15893 3114 ft 137 kts 14°
2026-04-21 15:19 50.21140 9.16281 3114 ft 137 kts 14°
2026-04-21 15:19 50.22056 9.16672 3114 ft 137 kts 14°
2026-04-21 15:19 50.22985 9.17068 3114 ft 137 kts 14°
2026-04-21 15:19 50.23893 9.17456 3114 ft 137 kts 14°
2026-04-21 15:20 50.24818 9.17850 3114 ft 137 kts 14°
2026-04-21 15:20 50.25737 9.18242 3114 ft 137 kts 14°
2026-04-21 15:20 50.26657 9.18635 3114 ft 137 kts 14°
2026-04-21 15:20 50.27574 9.19026 3114 ft 137 kts 14°
2026-04-21 15:21 50.28492 9.19418 3114 ft 137 kts 14°
2026-04-21 15:21 50.29408 9.19810 3114 ft 137 kts 14°
2026-04-21 15:21 50.30323 9.20201 3114 ft 137 kts 14°
2026-04-21 15:21 50.31251 9.20598 3114 ft 137 kts 14°
2026-04-21 15:22 50.32161 9.20986 3114 ft 137 kts 14°
2026-04-21 15:22 50.33085 9.21382 3114 ft 137 kts 14°
2026-04-21 15:22 50.34003 9.21775 3114 ft 137 kts 14°
2026-04-21 15:22 50.34909 9.22163 3114 ft 137 kts 14°
2026-04-21 15:23 50.35832 9.22559 3114 ft 137 kts 14°
2026-04-21 15:23 50.36745 9.22960 3137 ft 136 kts 14°
2026-04-21 15:23 50.37641 9.23353 3275 ft 130 kts 14°
2026-04-21 15:23 50.38464 9.23712 3519 ft 118 kts 14°
2026-04-21 15:24 50.39225 9.24043 3735 ft 110 kts 13°
2026-04-21 15:24 50.39944 9.24353 3953 ft 103 kts 13°
2026-04-21 15:24 50.40613 9.24642 4170 ft 96 kts 12°
2026-04-21 15:24 50.41243 9.24738 4387 ft 89 kts 356°
2026-04-21 15:25 50.41838 9.24697 4602 ft 82 kts 355°
2026-04-21 15:25 50.42381 9.24647 4815 ft 75 kts 354°
2026-04-21 15:25 50.42895 9.24595 4986 ft 73 kts 354°
2026-04-21 15:25 50.43409 9.24539 5106 ft 76 kts 353°
2026-04-21 15:26 50.43948 9.24480 5217 ft 80 kts 353°
2026-04-21 15:26 50.44529 9.24413 5325 ft 85 kts 353°
2026-04-21 15:26 50.45118 9.24346 5450 ft 87 kts 353°
2026-04-21 15:26 50.45732 9.24277 5579 ft 88 kts 352°
2026-04-21 15:27 50.46352 9.24205 5706 ft 90 kts 352°
2026-04-21 15:27 50.46974 9.24131 5839 ft 90 kts 352°
2026-04-21 15:27 50.47601 9.24056 5989 ft 89 kts 352°
2026-04-21 15:27 50.48217 9.23980 6138 ft 88 kts 352°
2026-04-21 15:28 50.48824 9.23908 6286 ft 87 kts 351°
2026-04-21 15:28 50.49417 9.23835 6431 ft 86 kts 350°
2026-04-21 15:28 50.50015 9.23760 6555 ft 87 kts 350°
2026-04-21 15:28 50.50617 9.23680 6682 ft 87 kts 350°
2026-04-21 15:29 50.51227 9.23606 6808 ft 87 kts 349°
2026-04-21 15:29 50.51831 9.23538 6932 ft 88 kts 349°
2026-04-21 15:29 50.52439 9.23468 7058 ft 88 kts 350°
2026-04-21 15:29 50.53056 9.23394 7184 ft 88 kts 350°
2026-04-21 15:30 50.53664 9.23325 7307 ft 88 kts 348°
2026-04-21 15:30 50.54280 9.23253 7432 ft 88 kts 348°
2026-04-21 15:30 50.54887 9.23178 7555 ft 88 kts 347°
2026-04-21 15:30 50.55499 9.23102 7680 ft 88 kts 347°
2026-04-21 15:31 50.56103 9.23025 7805 ft 87 kts 347°
2026-04-21 15:31 50.56711 9.22949 7928 ft 87 kts 348°
2026-04-21 15:31 50.57312 9.22874 8051 ft 87 kts 346°
2026-04-21 15:31 50.57908 9.22797 8176 ft 86 kts 346°
2026-04-21 15:32 50.58504 9.22723 8291 ft 86 kts 346°
2026-04-21 15:32 50.59106 9.22644 8392 ft 88 kts 346°
2026-04-21 15:32 50.59721 9.22566 8495 ft 89 kts 346°
2026-04-21 15:32 50.60341 9.22488 8591 ft 91 kts 346°
2026-04-21 15:33 50.61053 9.22375 8522 ft 114 kts 350°
2026-04-21 15:33 50.61869 9.22271 8600 ft 118 kts 351°
2026-04-21 15:33 50.62700 9.22175 8682 ft 122 kts 351°
2026-04-21 15:33 50.63565 9.22072 8735 ft 128 kts 351°
2026-04-21 15:34 50.64477 9.21963 8767 ft 134 kts 351°
2026-04-21 15:34 50.65427 9.21849 8799 ft 139 kts 351°
2026-04-21 15:34 50.66404 9.21729 8802 ft 145 kts 351°
2026-04-21 15:34 50.67437 9.21601 8801 ft 150 kts 351°
2026-04-21 15:35 50.68484 9.21471 8800 ft 155 kts 351°
2026-04-21 15:35 50.69574 9.21335 8800 ft 158 kts 352°
2026-04-21 15:35 50.70678 9.21198 8799 ft 161 kts 352°
2026-04-21 15:35 50.71801 9.21058 8799 ft 163 kts 352°
2026-04-21 15:36 50.72941 9.20915 8799 ft 165 kts 352°
2026-04-21 15:36 50.74088 9.20771 8799 ft 166 kts 352°
2026-04-21 15:36 50.75240 9.20626 8799 ft 167 kts 352°
2026-04-21 15:36 50.76405 9.20479 8798 ft 168 kts 352°
2026-04-21 15:37 50.77562 9.20333 8798 ft 169 kts 352°
2026-04-21 15:37 50.78749 9.20184 8798 ft 170 kts 352°
2026-04-21 15:37 50.79913 9.20036 8798 ft 169 kts 352°
2026-04-21 15:37 50.81098 9.19887 8798 ft 169 kts 352°
2026-04-21 15:38 50.82254 9.19740 8798 ft 169 kts 352°
2026-04-21 15:38 50.83429 9.19591 8798 ft 168 kts 352°
2026-04-21 15:38 50.84588 9.19444 8798 ft 168 kts 352°
2026-04-21 15:38 50.85755 9.19296 8798 ft 168 kts 352°
2026-04-21 15:39 50.86921 9.19148 8798 ft 168 kts 352°
2026-04-21 15:39 50.88082 9.19000 8798 ft 168 kts 352°
2026-04-21 15:39 50.89256 9.18851 8798 ft 168 kts 352°
2026-04-21 15:39 50.90412 9.18704 8799 ft 168 kts 352°
2026-04-21 15:40 50.91579 9.18555 8799 ft 168 kts 352°
2026-04-21 15:40 50.92745 9.18407 8799 ft 168 kts 352°
2026-04-21 15:40 50.93908 9.18258 8799 ft 168 kts 352°
2026-04-21 15:40 50.95066 9.18111 8799 ft 168 kts 352°
2026-04-21 15:41 50.96224 9.17963 8799 ft 168 kts 352°
2026-04-21 15:41 50.97395 9.17813 8799 ft 168 kts 352°
2026-04-21 15:41 50.98561 9.17664 8799 ft 168 kts 352°
2026-04-21 15:41 50.99727 9.17515 8799 ft 168 kts 352°
2026-04-21 15:42 51.00892 9.17366 8799 ft 168 kts 352°
2026-04-21 15:42 51.02065 9.17216 8799 ft 168 kts 352°
2026-04-21 15:42 51.03224 9.17068 8799 ft 168 kts 352°
2026-04-21 15:42 51.04386 9.16919 8799 ft 168 kts 352°
2026-04-21 15:43 51.05560 9.16769 8799 ft 168 kts 352°
2026-04-21 15:43 51.06723 9.16620 8799 ft 168 kts 352°
2026-04-21 15:43 51.07873 9.16473 8799 ft 167 kts 352°
2026-04-21 15:43 51.09031 9.16324 8799 ft 166 kts 352°
2026-04-21 15:44 51.10171 9.16178 8798 ft 166 kts 352°
2026-04-21 15:44 51.11321 9.16030 8795 ft 165 kts 352°
2026-04-21 15:44 51.12457 9.15884 8794 ft 164 kts 352°
2026-04-21 15:44 51.13596 9.15737 8794 ft 163 kts 352°
2026-04-21 15:45 51.14710 9.15594 8794 ft 161 kts 352°
2026-04-21 15:45 51.15837 9.15449 8794 ft 160 kts 352°
2026-04-21 15:45 51.16934 9.15307 8794 ft 159 kts 352°
2026-04-21 15:45 51.18041 9.15165 8795 ft 158 kts 352°
2026-04-21 15:46 51.19128 9.15024 8795 ft 157 kts 352°
2026-04-21 15:46 51.20214 9.14884 8795 ft 157 kts 352°
2026-04-21 15:46 51.21290 9.14744 8795 ft 156 kts 352°
2026-04-21 15:46 51.22377 9.14603 8796 ft 156 kts 352°
2026-04-21 15:47 51.23457 9.14464 8795 ft 156 kts 352°
2026-04-21 15:47 51.24541 9.14322 8803 ft 155 kts 349°
2026-04-21 15:47 51.25601 9.14200 8802 ft 150 kts 349°
2026-04-21 15:47 51.26622 9.14067 8797 ft 146 kts 349°
2026-04-21 15:48 51.27632 9.13934 8796 ft 143 kts 349°
2026-04-21 15:48 51.28620 9.13804 8797 ft 141 kts 348°
2026-04-21 15:48 51.29586 9.13678 8796 ft 140 kts 349°
2026-04-21 15:48 51.30548 9.13547 8797 ft 138 kts 348°
2026-04-21 15:49 51.31517 9.13425 8797 ft 138 kts 348°
2026-04-21 15:49 51.32472 9.13297 8796 ft 138 kts 348°
2026-04-21 15:49 51.33425 9.13170 8797 ft 137 kts 348°
2026-04-21 15:49 51.34380 9.13050 8797 ft 138 kts 348°
2026-04-21 15:50 51.35340 9.12923 8799 ft 139 kts 348°
2026-04-21 15:50 51.36312 9.12793 8798 ft 141 kts 348°
2026-04-21 15:50 51.37288 9.12667 8797 ft 142 kts 348°
2026-04-21 15:50 51.38270 9.12540 8798 ft 143 kts 348°
2026-04-21 15:51 51.39270 9.12405 8801 ft 144 kts 349°
2026-04-21 15:51 51.40276 9.12275 8797 ft 147 kts 348°
2026-04-21 15:51 51.41300 9.12141 8800 ft 149 kts 348°
2026-04-21 15:51 51.42349 9.12004 8798 ft 151 kts 348°
2026-04-21 15:52 51.43401 9.11865 8798 ft 152 kts 349°
2026-04-21 15:52 51.44461 9.11728 8797 ft 153 kts 349°
2026-04-21 15:52 51.45521 9.11593 8797 ft 153 kts 349°
2026-04-21 15:52 51.46587 9.11453 8799 ft 154 kts 349°
2026-04-21 15:53 51.47651 9.11311 8797 ft 153 kts 349°
2026-04-21 15:53 51.48705 9.11173 8797 ft 153 kts 349°
2026-04-21 15:53 51.49774 9.11040 8797 ft 153 kts 349°
2026-04-21 15:53 51.50822 9.10855 8797 ft 153 kts 346°
2026-04-21 15:54 51.51879 9.10628 8796 ft 153 kts 346°
2026-04-21 15:54 51.52933 9.10403 8798 ft 152 kts 346°
2026-04-21 15:54 51.53985 9.10172 8796 ft 153 kts 346°
2026-04-21 15:54 51.55035 9.09943 8797 ft 153 kts 346°
2026-04-21 15:55 51.56086 9.09710 8797 ft 153 kts 346°
2026-04-21 15:55 51.57149 9.09474 8797 ft 153 kts 346°
2026-04-21 15:55 51.58206 9.09240 8797 ft 153 kts 346°
2026-04-21 15:55 51.59259 9.09008 8796 ft 153 kts 346°
2026-04-21 15:56 51.60316 9.08773 8797 ft 154 kts 346°
2026-04-21 15:56 51.61379 9.08535 8798 ft 153 kts 346°
2026-04-21 15:56 51.62429 9.08302 8797 ft 153 kts 346°
2026-04-21 15:56 51.63482 9.08068 8796 ft 153 kts 346°
2026-04-21 15:57 51.64545 9.07834 8797 ft 153 kts 346°
2026-04-21 15:57 51.65585 9.07601 8796 ft 153 kts 346°
2026-04-21 15:57 51.66639 9.07364 8796 ft 152 kts 346°
2026-04-21 15:57 51.67682 9.07131 8794 ft 152 kts 345°
2026-04-21 15:58 51.68746 9.06899 8799 ft 152 kts 346°
2026-04-21 15:58 51.69791 9.06663 8797 ft 152 kts 346°
2026-04-21 15:58 51.70826 9.06434 8799 ft 152 kts 346°
2026-04-21 15:58 51.71884 9.06197 8800 ft 152 kts 346°
2026-04-21 15:59 51.72923 9.05967 8802 ft 152 kts 346°
2026-04-21 15:59 51.73966 9.05730 8803 ft 151 kts 346°
2026-04-21 15:59 51.75007 9.05499 8803 ft 151 kts 346°
2026-04-21 15:59 51.76047 9.05269 8806 ft 151 kts 346°
2026-04-21 16:00 51.77088 9.05035 8806 ft 151 kts 346°
2026-04-21 16:00 51.78132 9.04799 8807 ft 151 kts 346°
2026-04-21 16:00 51.79165 9.04569 8808 ft 151 kts 346°
2026-04-21 16:00 51.80215 9.04335 8809 ft 150 kts 346°
2026-04-21 16:01 51.81240 9.04107 8811 ft 150 kts 346°
2026-04-21 16:01 51.82283 9.03869 8811 ft 149 kts 346°
2026-04-21 16:01 51.83322 9.03629 8804 ft 155 kts 347°
2026-04-21 16:01 51.84407 9.03384 8817 ft 160 kts 347°
2026-04-21 16:02 51.85524 9.03134 8818 ft 165 kts 348°
2026-04-21 16:02 51.86671 9.02879 8819 ft 168 kts 348°
2026-04-21 16:02 51.87844 9.02618 8819 ft 171 kts 348°
2026-04-21 16:02 51.89042 9.02350 8819 ft 174 kts 348°
2026-04-21 16:03 51.90243 9.02080 8819 ft 175 kts 348°
2026-04-21 16:03 51.91443 9.01813 8820 ft 177 kts 348°
2026-04-21 16:03 51.92647 9.01558 8803 ft 170 kts 346°
2026-04-21 16:03 51.93794 9.01294 8794 ft 164 kts 346°
2026-04-21 16:04 51.94904 9.01044 8793 ft 160 kts 346°
2026-04-21 16:04 51.95994 9.00801 8794 ft 157 kts 345°
2026-04-21 16:04 51.97072 9.00554 8794 ft 155 kts 345°
2026-04-21 16:04 51.98140 9.00313 8795 ft 154 kts 345°
2026-04-21 16:05 51.99200 9.00068 8797 ft 153 kts 346°
2026-04-21 16:05 52.00254 8.99828 8795 ft 152 kts 346°
2026-04-21 16:05 52.01303 8.99592 8796 ft 151 kts 346°
2026-04-21 16:05 52.02345 8.99355 8796 ft 151 kts 345°
2026-04-21 16:06 52.03377 8.99122 8798 ft 151 kts 345°
2026-04-21 16:06 52.04420 8.98887 8800 ft 150 kts 345°
2026-04-21 16:06 52.05451 8.98646 8799 ft 150 kts 346°
2026-04-21 16:06 52.06479 8.98417 8800 ft 149 kts 346°
2026-04-21 16:07 52.07516 8.98235 8801 ft 150 kts 348°
2026-04-21 16:07 52.08543 8.98055 8802 ft 149 kts 347°
2026-04-21 16:07 52.09576 8.97862 8800 ft 149 kts 346°
2026-04-21 16:07 52.10606 8.97658 8805 ft 149 kts 346°
2026-04-21 16:08 52.12654 8.97214 8806 ft 149 kts 346°
2026-04-21 16:08 52.13681 8.96991 8806 ft 148 kts 346°
2026-04-21 16:08 52.14713 8.96762 8807 ft 148 kts 346°
2026-04-21 16:09 52.15730 8.96536 8806 ft 149 kts 345°
2026-04-21 16:09 52.16758 8.96303 8807 ft 149 kts 345°
2026-04-21 16:09 52.17789 8.96068 8810 ft 148 kts 345°
2026-04-21 16:09 52.18811 8.95841 8812 ft 149 kts 345°
2026-04-21 16:10 52.19828 8.95606 8813 ft 149 kts 345°
2026-04-21 16:10 52.20862 8.95364 8815 ft 148 kts 345°
2026-04-21 16:10 52.21875 8.95137 8818 ft 148 kts 345°
2026-04-21 16:10 52.22905 8.94901 8821 ft 148 kts 346°
2026-04-21 16:11 52.23925 8.94673 8821 ft 149 kts 345°
2026-04-21 16:11 52.24953 8.94438 8826 ft 149 kts 345°
2026-04-21 16:11 52.25974 8.94201 8827 ft 149 kts 345°
2026-04-21 16:11 52.27001 8.93968 8829 ft 149 kts 345°
2026-04-21 16:12 52.28028 8.93733 8834 ft 149 kts 345°
2026-04-21 16:12 52.29068 8.93494 8835 ft 150 kts 345°
2026-04-21 16:12 52.30088 8.93259 8838 ft 150 kts 345°
2026-04-21 16:12 52.31125 8.93023 8842 ft 150 kts 345°
2026-04-21 16:13 52.32158 8.92785 8844 ft 150 kts 345°
2026-04-21 16:13 52.33186 8.92550 8845 ft 150 kts 345°
2026-04-21 16:13 52.34215 8.92315 8846 ft 150 kts 345°
2026-04-21 16:13 52.35255 8.92075 8846 ft 150 kts 345°
2026-04-21 16:14 52.36282 8.91839 8846 ft 150 kts 345°
2026-04-21 16:14 52.37318 8.91601 8846 ft 150 kts 345°
2026-04-21 16:14 52.38347 8.91364 8847 ft 150 kts 345°
2026-04-21 16:14 52.39357 8.91132 8847 ft 150 kts 345°
2026-04-21 16:15 52.40387 8.90895 8847 ft 150 kts 345°
2026-04-21 16:15 52.41430 8.90655 8848 ft 150 kts 345°
2026-04-21 16:15 52.42464 8.90416 8848 ft 150 kts 345°
2026-04-21 16:15 52.43498 8.90179 8848 ft 150 kts 345°
2026-04-21 16:16 52.44521 8.89943 8848 ft 150 kts 345°
2026-04-21 16:16 52.45555 8.89704 8848 ft 150 kts 345°
2026-04-21 16:16 52.46586 8.89466 8848 ft 150 kts 345°
2026-04-21 16:16 52.47628 8.89226 8849 ft 150 kts 345°
2026-04-21 16:17 52.48665 8.88986 8849 ft 150 kts 345°
2026-04-21 16:17 52.49697 8.88747 8849 ft 150 kts 345°
2026-04-21 16:17 52.50725 8.88510 8850 ft 150 kts 345°
2026-04-21 16:17 52.51755 8.88271 8850 ft 150 kts 345°
2026-04-21 16:18 52.52785 8.88033 8850 ft 150 kts 345°
2026-04-21 16:18 52.53822 8.87793 8850 ft 150 kts 345°
2026-04-21 16:18 52.54860 8.87552 8850 ft 150 kts 345°
2026-04-21 16:18 52.55888 8.87314 8850 ft 150 kts 345°
2026-04-21 16:19 52.56921 8.87074 8850 ft 150 kts 345°
2026-04-21 16:19 52.57962 8.86833 8850 ft 150 kts 345°
2026-04-21 16:19 52.58992 8.86594 8850 ft 150 kts 345°
2026-04-21 16:19 52.60030 8.86353 8850 ft 150 kts 345°
2026-04-21 16:20 52.61061 8.86113 8850 ft 150 kts 345°
2026-04-21 16:20 52.62098 8.85872 8850 ft 150 kts 345°
2026-04-21 16:20 52.63132 8.85632 8850 ft 150 kts 345°
2026-04-21 16:20 52.64157 8.85393 8850 ft 150 kts 345°
2026-04-21 16:21 52.65192 8.85152 8850 ft 150 kts 345°
2026-04-21 16:21 52.66224 8.84912 8850 ft 150 kts 345°
2026-04-21 16:21 52.67254 8.84672 8850 ft 150 kts 345°
2026-04-21 16:21 52.68287 8.84431 8850 ft 150 kts 345°
2026-04-21 16:22 52.69320 8.84190 8850 ft 150 kts 345°
2026-04-21 16:22 52.70354 8.83949 8850 ft 150 kts 345°
2026-04-21 16:22 52.71381 8.83709 8850 ft 150 kts 345°
2026-04-21 16:22 52.72413 8.83468 8850 ft 150 kts 345°
2026-04-21 16:23 52.73442 8.83228 8850 ft 150 kts 345°
2026-04-21 16:23 52.74475 8.82986 8850 ft 150 kts 345°
2026-04-21 16:23 52.75504 8.82746 8849 ft 150 kts 345°
2026-04-21 16:23 52.76540 8.82503 8849 ft 150 kts 345°
2026-04-21 16:24 52.77563 8.82264 8849 ft 150 kts 345°
2026-04-21 16:24 52.78598 8.82021 8849 ft 150 kts 345°
2026-04-21 16:24 52.79628 8.81780 8849 ft 150 kts 345°
2026-04-21 16:24 52.80657 8.81538 8849 ft 150 kts 345°
2026-04-21 16:25 52.81687 8.81297 8849 ft 150 kts 345°
2026-04-21 16:25 52.82727 8.81053 8849 ft 150 kts 345°
2026-04-21 16:25 52.83751 8.80812 8849 ft 150 kts 345°
2026-04-21 16:25 52.84782 8.80570 8849 ft 150 kts 345°
2026-04-21 16:26 52.85822 8.80326 8849 ft 150 kts 345°
2026-04-21 16:26 52.86853 8.80083 8849 ft 150 kts 345°
2026-04-21 16:26 52.87883 8.79841 8849 ft 150 kts 345°
2026-04-21 16:26 52.88912 8.79599 8849 ft 150 kts 345°
2026-04-21 16:27 52.89938 8.79357 8849 ft 150 kts 345°
2026-04-21 16:27 52.90964 8.79115 8849 ft 150 kts 345°
2026-04-21 16:27 52.92000 8.78871 8849 ft 150 kts 345°
2026-04-21 16:27 52.93023 8.78630 8849 ft 150 kts 345°
2026-04-21 16:28 52.94055 8.78387 8849 ft 150 kts 345°
2026-04-21 16:28 52.95079 8.78145 8849 ft 150 kts 345°
2026-04-21 16:28 52.96110 8.77901 8849 ft 150 kts 345°
2026-04-21 16:28 52.97141 8.77658 8849 ft 150 kts 345°
2026-04-21 16:29 52.98177 8.77413 8849 ft 150 kts 345°
2026-04-21 16:29 52.99211 8.77168 8849 ft 150 kts 345°
2026-04-21 16:29 53.00249 8.76922 8849 ft 150 kts 345°
2026-04-21 16:29 53.01279 8.76678 8849 ft 151 kts 345°
2026-04-21 16:30 53.02317 8.76432 8849 ft 151 kts 345°
2026-04-21 16:30 53.03350 8.76187 8849 ft 151 kts 345°
2026-04-21 16:30 53.04399 8.75979 8846 ft 154 kts 351°
2026-04-21 16:30 53.05473 8.75995 8849 ft 155 kts 354°
2026-04-21 16:31 53.06562 8.76037 8849 ft 156 kts 354°
2026-04-21 16:31 53.07635 8.76088 8849 ft 156 kts 355°
2026-04-21 16:31 53.08723 8.76146 8849 ft 156 kts 355°
2026-04-21 16:31 53.09813 8.76206 8849 ft 156 kts 355°
2026-04-21 16:32 53.10897 8.76268 8850 ft 157 kts 355°
2026-04-21 16:32 53.11993 8.76332 8850 ft 157 kts 355°
2026-04-21 16:32 53.13077 8.76396 8850 ft 157 kts 355°
2026-04-21 16:32 53.14169 8.76461 8850 ft 157 kts 355°
2026-04-21 16:33 53.15253 8.76526 8841 ft 157 kts 355°
2026-04-21 16:33 53.16341 8.76590 8752 ft 157 kts 356°
2026-04-21 16:33 53.17436 8.76656 8652 ft 157 kts 356°
2026-04-21 16:33 53.18521 8.76722 8552 ft 156 kts 356°
2026-04-21 16:34 53.19604 8.76787 8452 ft 156 kts 356°
2026-04-21 16:34 53.20697 8.76852 8351 ft 156 kts 356°
2026-04-21 16:34 53.21783 8.76917 8251 ft 155 kts 356°
2026-04-21 16:34 53.22846 8.76982 8201 ft 154 kts 356°
2026-04-21 16:35 53.23920 8.77046 8150 ft 153 kts 356°
2026-04-21 16:35 53.24980 8.77110 8099 ft 153 kts 356°
2026-04-21 16:35 53.26042 8.77173 8049 ft 152 kts 356°
2026-04-21 16:35 53.27094 8.77237 7998 ft 152 kts 356°
2026-04-21 16:36 53.28155 8.77301 7968 ft 151 kts 356°
2026-04-21 16:36 53.29189 8.77363 7943 ft 150 kts 356°
2026-04-21 16:36 53.30235 8.77426 7917 ft 150 kts 356°
2026-04-21 16:36 53.31286 8.77488 7891 ft 150 kts 356°
2026-04-21 16:37 53.32314 8.77550 7866 ft 149 kts 356°
2026-04-21 16:37 53.33362 8.77613 7840 ft 149 kts 356°
2026-04-21 16:37 53.34387 8.77674 7815 ft 149 kts 356°
2026-04-21 16:37 53.35419 8.77737 7808 ft 148 kts 356°
2026-04-21 16:38 53.36456 8.77799 7811 ft 148 kts 356°
2026-04-21 16:38 53.37477 8.77860 7813 ft 149 kts 356°
2026-04-21 16:38 53.38513 8.77922 7815 ft 149 kts 356°
2026-04-21 16:38 53.39558 8.77985 7816 ft 149 kts 356°
2026-04-21 16:39 53.40598 8.78048 7818 ft 150 kts 356°
2026-04-21 16:39 53.41634 8.78110 7820 ft 150 kts 356°
2026-04-21 16:39 53.42673 8.78173 7821 ft 150 kts 356°
2026-04-21 16:39 53.43720 8.78237 7823 ft 150 kts 356°
2026-04-21 16:40 53.44764 8.78300 7824 ft 150 kts 356°
2026-04-21 16:40 53.45799 8.78363 7825 ft 150 kts 356°
2026-04-21 16:40 53.46843 8.78426 7825 ft 150 kts 356°
2026-04-21 16:40 53.47883 8.78489 7825 ft 150 kts 356°
2026-04-21 16:41 53.48938 8.78553 7824 ft 150 kts 356°
2026-04-21 16:41 53.49981 8.78616 7824 ft 150 kts 356°
2026-04-21 16:41 53.51022 8.78680 7824 ft 150 kts 356°
2026-04-21 16:41 53.52062 8.78743 7824 ft 150 kts 356°
2026-04-21 16:42 53.53116 8.78807 7824 ft 150 kts 356°
2026-04-21 16:42 53.54155 8.78870 7824 ft 150 kts 356°
2026-04-21 16:42 53.55212 8.78935 7824 ft 150 kts 356°
2026-04-21 16:42 53.56250 8.78998 7824 ft 150 kts 356°
2026-04-21 16:43 53.57292 8.79061 7824 ft 150 kts 356°
2026-04-21 16:43 53.58346 8.79125 7824 ft 150 kts 356°
2026-04-21 16:43 53.59383 8.79188 7824 ft 150 kts 356°
2026-04-21 16:43 53.60428 8.79252 7824 ft 150 kts 356°
2026-04-21 16:44 53.61480 8.79316 7824 ft 150 kts 356°
2026-04-21 16:44 53.62529 8.79380 7824 ft 150 kts 356°
2026-04-21 16:44 53.63569 8.79444 7824 ft 150 kts 356°
2026-04-21 16:44 53.64621 8.79508 7824 ft 150 kts 356°
2026-04-21 16:45 53.65657 8.79572 7824 ft 150 kts 356°
2026-04-21 16:45 53.66712 8.79636 7824 ft 150 kts 356°
2026-04-21 16:45 53.67755 8.79700 7824 ft 150 kts 356°
2026-04-21 16:45 53.68808 8.79764 7824 ft 150 kts 356°
2026-04-21 16:46 53.69856 8.79828 7824 ft 150 kts 356°
2026-04-21 16:46 53.70897 8.79892 7824 ft 150 kts 356°
2026-04-21 16:46 53.71939 8.79956 7824 ft 150 kts 356°
2026-04-21 16:46 53.72984 8.80020 7824 ft 150 kts 356°
2026-04-21 16:47 53.74028 8.80084 7824 ft 150 kts 356°
2026-04-21 16:47 53.75073 8.80148 7824 ft 150 kts 356°
2026-04-21 16:47 53.76128 8.80213 7824 ft 150 kts 356°
2026-04-21 16:47 53.77173 8.80278 7824 ft 150 kts 356°
2026-04-21 16:48 53.78222 8.80359 7823 ft 151 kts 359°
2026-04-21 16:48 53.79257 8.80589 7824 ft 152 kts
2026-04-21 16:48 53.80315 8.80843 7824 ft 152 kts
2026-04-21 16:48 53.81362 8.81102 7824 ft 152 kts
2026-04-21 16:49 53.82405 8.81363 7824 ft 152 kts
2026-04-21 16:49 53.83454 8.81629 7824 ft 152 kts
2026-04-21 16:49 53.84495 8.81893 7824 ft 152 kts
2026-04-21 16:49 53.85545 8.82161 7824 ft 152 kts
2026-04-21 16:50 53.86594 8.82429 7824 ft 152 kts
2026-04-21 16:50 53.87640 8.82696 7824 ft 152 kts
2026-04-21 16:50 53.88674 8.82961 7824 ft 152 kts
2026-04-21 16:50 53.89721 8.83230 7824 ft 152 kts
2026-04-21 16:51 53.90773 8.83500 7824 ft 152 kts
2026-04-21 16:51 53.91820 8.83769 7824 ft 152 kts
2026-04-21 16:51 53.92864 8.84037 7824 ft 152 kts
2026-04-21 16:51 53.93911 8.84307 7824 ft 152 kts
2026-04-21 16:52 53.94963 8.84577 7824 ft 152 kts
2026-04-21 16:52 53.96007 8.84846 7824 ft 152 kts
2026-04-21 16:52 53.97044 8.85113 7824 ft 152 kts
2026-04-21 16:52 53.98091 8.85383 7824 ft 152 kts
2026-04-21 16:53 53.99144 8.85651 7824 ft 152 kts
2026-04-21 16:53 54.00177 8.86001 7824 ft 153 kts
2026-04-21 16:53 54.01218 8.86338 7824 ft 152 kts
2026-04-21 16:53 54.02260 8.86654 7824 ft 152 kts
2026-04-21 16:54 54.03303 8.86954 7824 ft 152 kts
2026-04-21 16:54 54.04348 8.87243 7824 ft 152 kts
2026-04-21 16:54 54.05400 8.87528 7824 ft 152 kts
2026-04-21 16:54 54.06438 8.87805 7823 ft 152 kts
2026-04-21 16:55 54.07490 8.88082 7823 ft 152 kts
2026-04-21 16:55 54.08533 8.88356 7824 ft 152 kts
2026-04-21 16:55 54.09584 8.88631 7824 ft 152 kts
2026-04-21 16:55 54.10638 8.88905 7826 ft 152 kts
2026-04-21 16:56 54.11684 8.89178 7827 ft 152 kts
2026-04-21 16:56 54.12723 8.89448 7827 ft 152 kts
2026-04-21 16:56 54.13769 8.89720 7827 ft 152 kts
2026-04-21 16:56 54.14822 8.89926 7822 ft 149 kts 350°
2026-04-21 16:57 54.15800 8.89459 7828 ft 146 kts 338°
2026-04-21 16:57 54.16766 8.88878 7827 ft 146 kts 335°
2026-04-21 16:57 54.17704 8.88266 7826 ft 146 kts 334°
2026-04-21 16:57 54.18657 8.87619 7825 ft 146 kts 334°
2026-04-21 16:58 54.19591 8.86969 7825 ft 146 kts 333°
2026-04-21 16:58 54.20527 8.86308 7825 ft 145 kts 333°
2026-04-21 16:58 54.21460 8.85643 7825 ft 145 kts 333°
2026-04-21 16:58 54.22400 8.84968 7825 ft 145 kts 333°
2026-04-21 16:59 54.23339 8.84289 7768 ft 147 kts 333°
2026-04-21 16:59 54.24287 8.83602 7693 ft 148 kts 333°
2026-04-21 16:59 54.25241 8.82909 7594 ft 149 kts 333°
2026-04-21 16:59 54.26201 8.82210 7495 ft 150 kts 333°
2026-04-21 17:00 54.27151 8.81520 7396 ft 149 kts 334°
2026-04-21 17:00 54.28100 8.80828 7296 ft 149 kts 334°
2026-04-21 17:00 54.28734 8.80366 7229 ft 148 kts 334°
2026-04-21 17:00 54.29998 8.79444 7096 ft 148 kts 334°
2026-04-21 17:01 54.30951 8.78748 6995 ft 148 kts 334°
2026-04-21 17:01 54.31894 8.78060 6896 ft 147 kts 334°
2026-04-21 17:01 54.32838 8.77370 6796 ft 147 kts 335°
2026-04-21 17:01 54.33777 8.76683 6705 ft 146 kts 335°
2026-04-21 17:02 54.34696 8.75965 6627 ft 145 kts 327°
2026-04-21 17:02 54.35567 8.75104 6553 ft 143 kts 328°
2026-04-21 17:02 54.36399 8.74186 6478 ft 143 kts 326°
2026-04-21 17:02 54.37223 8.73238 6402 ft 142 kts 325°
2026-04-21 17:03 54.38049 8.72267 6327 ft 142 kts 325°
2026-04-21 17:03 54.38862 8.71304 6252 ft 143 kts 325°
2026-04-21 17:03 54.39676 8.70336 6177 ft 143 kts 325°
2026-04-21 17:03 54.40497 8.69354 6101 ft 143 kts 325°
2026-04-21 17:04 54.41310 8.68378 6026 ft 143 kts 325°
2026-04-21 17:04 54.42117 8.67340 5950 ft 143 kts 323°
2026-04-21 17:04 54.42905 8.66311 5876 ft 143 kts 323°
2026-04-21 17:04 54.43704 8.65261 5800 ft 143 kts 323°
2026-04-21 17:05 54.44499 8.64211 5724 ft 144 kts 323°
2026-04-21 17:05 54.45293 8.63160 5648 ft 144 kts 323°
2026-04-21 17:05 54.46081 8.62110 5573 ft 144 kts 323°
2026-04-21 17:05 54.46876 8.61047 5497 ft 144 kts 323°
2026-04-21 17:06 54.47668 8.59985 5399 ft 148 kts 322°
2026-04-21 17:06 54.48505 8.58895 5330 ft 154 kts 323°
2026-04-21 17:06 54.49381 8.57752 5260 ft 159 kts 323°
2026-04-21 17:06 54.50276 8.56580 5189 ft 163 kts 323°
2026-04-21 17:07 54.51182 8.55388 5117 ft 165 kts 323°
2026-04-21 17:07 54.52099 8.54177 5045 ft 167 kts 323°
2026-04-21 17:07 54.53018 8.52959 4972 ft 168 kts 323°
2026-04-21 17:07 54.53957 8.51709 4899 ft 169 kts 323°
2026-04-21 17:08 54.54888 8.50465 4826 ft 170 kts 323°
2026-04-21 17:08 54.55790 8.49255 4755 ft 170 kts 323°
2026-04-21 17:08 54.56721 8.47981 4682 ft 171 kts 322°
2026-04-21 17:08 54.57644 8.46690 4608 ft 171 kts 322°
2026-04-21 17:09 54.59488 8.44101 4462 ft 171 kts 322°
2026-04-21 17:09 54.60416 8.42789 4388 ft 171 kts 322°
2026-04-21 17:09 54.61331 8.41491 4311 ft 171 kts 322°
2026-04-21 17:10 54.62237 8.40199 4160 ft 167 kts 322°
2026-04-21 17:10 54.63129 8.38918 3983 ft 164 kts 322°
2026-04-21 17:10 54.63995 8.37666 3810 ft 161 kts 322°
2026-04-21 17:10 54.64840 8.36433 3636 ft 159 kts 322°
2026-04-21 17:11 54.65673 8.35209 3462 ft 157 kts 321°
2026-04-21 17:11 54.66501 8.33996 3314 ft 154 kts 322°
2026-04-21 17:11 54.67345 8.32847 3189 ft 155 kts 325°
2026-04-21 17:11 54.68240 8.31746 3066 ft 159 kts 327°
2026-04-21 17:12 54.69156 8.30629 2943 ft 162 kts 327°
2026-04-21 17:12 54.70073 8.29509 2820 ft 164 kts 327°
2026-04-21 17:12 54.71030 8.28436 2693 ft 164 kts 334°
2026-04-21 17:12 54.72053 8.27528 2587 ft 163 kts 338°
2026-04-21 17:13 54.73101 8.26837 2511 ft 159 kts 345°
2026-04-21 17:13 54.74152 8.26307 2482 ft 154 kts 349°
2026-04-21 17:13 54.75177 8.26012 2476 ft 148 kts 357°
2026-04-21 17:13 54.76195 8.25856 2471 ft 144 kts 360°
2026-04-21 17:14 54.77183 8.25794 2449 ft 142 kts
2026-04-21 17:14 54.78178 8.25753 2422 ft 140 kts
2026-04-21 17:14 54.79143 8.25749 2395 ft 138 kts
2026-04-21 17:14 54.80097 8.25856 2369 ft 137 kts
2026-04-21 17:15 54.81043 8.25949 2341 ft 137 kts
2026-04-21 17:15 54.82005 8.26026 2266 ft 138 kts
2026-04-21 17:15 54.82972 8.26102 2191 ft 140 kts
2026-04-21 17:15 54.83944 8.26190 2116 ft 140 kts
2026-04-21 17:16 54.84920 8.26296 2031 ft 137 kts
2026-04-21 17:16 54.85861 8.26397 1928 ft 135 kts
2026-04-21 17:16 54.86789 8.26474 1815 ft 133 kts
2026-04-21 17:16 54.87691 8.26540 1637 ft 128 kts
2026-04-21 17:17 54.88571 8.26602 1457 ft 125 kts
2026-04-21 17:17 54.89434 8.26699 1276 ft 121 kts
2026-04-21 17:17 54.90246 8.26852 1129 ft 115 kts 12°
2026-04-21 17:17 54.90985 8.27062 997 ft 101 kts 17°
2026-04-21 17:18 54.91605 8.27462 869 ft 88 kts 36°
2026-04-21 17:18 54.92069 8.28081 702 ft 82 kts 45°
2026-04-21 17:18 54.92409 8.28831 608 ft 76 kts 62°
2026-04-21 17:18 54.92608 8.29629 539 ft 70 kts 71°
2026-04-21 17:19 54.92748 8.30416 421 ft 65 kts 73°
2026-04-21 17:19 54.92846 8.31101 394 ft 54 kts 78°
2026-04-21 17:19 54.92806 8.31767 382 ft 57 kts 104°
2026-04-21 17:19 54.92589 8.32390 331 ft 64 kts 125°
2026-04-21 17:20 54.92248 8.32904 200 ft 65 kts 136°
2026-04-21 17:20 54.91886 8.33355 71 ft 62 kts 142°
2026-04-21 17:20 54.91568 8.33740 50 ft 43 kts 142°
2026-04-21 17:20 54.91377 8.33977 50 ft 23 kts 143°
2026-04-21 17:21 54.91321 8.34026 50 ft 6 kts 216°
2026-04-21 17:21 54.91280 8.33917 50 ft 15 kts 240°
2026-04-21 17:21 54.91213 8.33715 50 ft 22 kts 239°
2026-04-21 17:21 54.91131 8.33474 50 ft 22 kts 240°
2026-04-21 17:22 54.91061 8.33258 50 ft 19 kts 239°
2026-04-21 17:22 54.91004 8.33063 50 ft 17 kts 269°
2026-04-21 17:22 54.91058 8.32910 50 ft 13 kts 311°
2026-04-21 17:22 54.91117 8.32793 50 ft 12 kts 311°
2026-04-21 17:23 54.91174 8.32677 50 ft 12 kts 311°
2026-04-21 17:23 54.91216 8.32606 50 ft 4 kts 317°
2026-04-21 17:23 54.91220 8.32547 50 ft 1 kts 238°
2026-04-21 17:23 54.91220 8.32546 50 ft 0 kts 238°